When you browse on this site, cookies collect data to enhance your experience and personalize the content and advertising you see.
Visit our Privacy Policy to learn more. By continuing to use the site, you agree to this use of cookies and data.
  • In Switzerland
  • List of Countries
  • For 7 days
  • Water Temperature
  • Satellite Maps
  • Weather Map
  • Weather Widgets
  • user-avatar
    Login

    Hourly Weather Koza

    Today, 25 June, Tuesday

    Time Temperature Precipitation Wind Pressure Humidity
    00:00 +19°C° 0 mm 2 mps 752 mmHg 83%
    01:00 +18°C° 0 mm 2 mps 752 mmHg 86%
    02:00 +18°C° 0 mm 3 mps 752 mmHg 87%
    03:00 +18°C° 0 mm 3 mps 752 mmHg 88%
    04:00 +18°C° 0 mm 3 mps 752 mmHg 89%
    05:00 +19°C° 0 mm 3 mps 752 mmHg 84%
    06:00 +21°C° 0 mm 3 mps 752 mmHg 79%
    07:00 +23°C° 0 mm 4 mps 753 mmHg 74%
    08:00 +25°C° 0 mm 4 mps 753 mmHg 70%
    09:00 +26°C° 0 mm 5 mps 752 mmHg 66%
    10:00 +28°C° 0 mm 5 mps 752 mmHg 63%
    11:00 +29°C° 0 mm 5 mps 752 mmHg 60%
    12:00 +30°C° 0 mm 5 mps 752 mmHg 58%
    13:00 +32°C° 0 mm 5 mps 752 mmHg 55%
    14:00 +32°C° 0 mm 4 mps 752 mmHg 54%
    15:00 +32°C° 0 mm 4 mps 752 mmHg 53%
    16:00 +33°C° 0 mm 4 mps 751 mmHg 52%
    17:00 +31°C° 0 mm 3 mps 751 mmHg 58%
    18:00 +30°C° 0 mm 3 mps 751 mmHg 64%
    19:00 +28°C° 0 mm 2 mps 751 mmHg 70%
    20:00 +27°C° 0 mm 3 mps 751 mmHg 74%
    21:00 +26°C° 0 mm 3 mps 751 mmHg 78%
    22:00 +24°C° 0 mm 3 mps 751 mmHg 82%
    23:00 +24°C° 0 mm 3 mps 751 mmHg 84%

    Tomorrow, 26 June, Wednesday

    Time Temperature Precipitation Wind Pressure Humidity
    00:00 +22°C° 0 mm 3 mps 751 mmHg 87%
    01:00 +22°C° 0 mm 3 mps 751 mmHg 89%
    02:00 +22°C° 0 mm 3 mps 751 mmHg 89%
    03:00 +23°C° 0 mm 2 mps 751 mmHg 89%
    04:00 +21°C° 0 mm 2 mps 750 mmHg 89%
    05:00 +24°C° 0 mm 3 mps 750 mmHg 84%
    06:00 +25°C° 0 mm 3 mps 750 mmHg 78%
    07:00 +27°C° 0 mm 3 mps 750 mmHg 73%
    08:00 +28°C° 0 mm 4 mps 750 mmHg 66%
    09:00 +30°C° 0 mm 4 mps 750 mmHg 59%
    10:00 +32°C° 0 mm 5 mps 750 mmHg 52%
    11:00 +33°C° 0 mm 5 mps 750 mmHg 50%
    12:00 +34°C° 0 mm 5 mps 750 mmHg 48%
    13:00 +35°C° 0 mm 5 mps 749 mmHg 46%
    14:00 +35°C° 0 mm 5 mps 749 mmHg 47%
    15:00 +35°C° 0 mm 5 mps 748 mmHg 47%
    16:00 +35°C° 0 mm 5 mps 748 mmHg 47%
    17:00 +34°C° 0 mm 4 mps 748 mmHg 53%
    18:00 +32°C° 0 mm 4 mps 747 mmHg 59%
    19:00 +30°C° 0 mm 4 mps 747 mmHg 65%
    20:00 +29°C° 0.1 mm 4 mps 747 mmHg 67%
    21:00 +28°C° 0.1 mm 4 mps 747 mmHg 70%
    22:00 +27°C° 0.1 mm 4 mps 748 mmHg 72%
    23:00 +26°C° 0.3 mm 4 mps 748 mmHg 79%

    Day after tomorrow, 27 June, Thursday

    Time Temperature Precipitation Wind Pressure Humidity
    00:00 +23°C° 0.3 mm 4 mps 748 mmHg 85%
    01:00 +22°C° 0.3 mm 4 mps 748 mmHg 92%
    02:00 +20°C° 0 mm 4 mps 748 mmHg 92%
    03:00 +19°C° 0 mm 4 mps 748 mmHg 93%
    04:00 +18°C° 0 mm 3 mps 748 mmHg 93%
    05:00 +18°C° 0 mm 4 mps 748 mmHg 89%
    06:00 +17°C° 0 mm 5 mps 748 mmHg 85%
    07:00 +17°C° 0 mm 6 mps 748 mmHg 81%
    08:00 +19°C° 0 mm 6 mps 748 mmHg 74%
    09:00 +20°C° 0 mm 7 mps 748 mmHg 67%
    10:00 +20°C° 0 mm 7 mps 749 mmHg 61%
    11:00 +21°C° 0 mm 7 mps 748 mmHg 56%
    12:00 +22°C° 0 mm 7 mps 748 mmHg 52%
    13:00 +23°C° 0 mm 7 mps 748 mmHg 47%
    14:00 +23°C° 0 mm 7 mps 748 mmHg 49%
    15:00 +23°C° 0 mm 7 mps 748 mmHg 51%
    16:00 +23°C° 0 mm 6 mps 747 mmHg 52%
    17:00 +22°C° 0 mm 6 mps 747 mmHg 57%
    18:00 +21°C° 0 mm 5 mps 747 mmHg 62%
    19:00 +20°C° 0 mm 4 mps 747 mmHg 67%
    20:00 +19°C° 0 mm 4 mps 747 mmHg 71%
    21:00 +18°C° 0 mm 4 mps 748 mmHg 74%
    22:00 +17°C° 0 mm 3 mps 748 mmHg 78%
    23:00 +16°C° 0 mm 3 mps 748 mmHg 83%

    28 June, Friday

    Time Temperature Precipitation Wind Pressure Humidity
    00:00 +16°C° 0 mm 3 mps 748 mmHg 87%
    01:00 +14°C° 0 mm 3 mps 748 mmHg 91%
    02:00 +14°C° 0 mm 3 mps 748 mmHg 93%
    03:00 +14°C° 0 mm 2 mps 748 mmHg 94%
    04:00 +14°C° 0 mm 2 mps 748 mmHg 96%
    05:00 +14°C° 0 mm 3 mps 748 mmHg 91%
    06:00 +16°C° 0 mm 3 mps 748 mmHg 87%
    07:00 +17°C° 0 mm 4 mps 748 mmHg 82%
    08:00 +18°C° 0 mm 4 mps 748 mmHg 77%
    09:00 +19°C° 0 mm 5 mps 748 mmHg 73%
    10:00 +20°C° 0 mm 6 mps 748 mmHg 68%
    11:00 +21°C° 0.3 mm 6 mps 748 mmHg 68%
    12:00 +21°C° 0.3 mm 6 mps 748 mmHg 69%
    13:00 +21°C° 0.3 mm 6 mps 748 mmHg 69%
    14:00 +21°C° 0.3 mm 6 mps 748 mmHg 66%
    15:00 +22°C° 0.3 mm 6 mps 748 mmHg 63%
    16:00 +22°C° 0.3 mm 6 mps 748 mmHg 60%
    17:00 +21°C° 0 mm 6 mps 748 mmHg 60%
    18:00 +20°C° 0 mm 5 mps 748 mmHg 61%
    19:00 +19°C° 0 mm 4 mps 749 mmHg 61%
    20:00 +17°C° 0 mm 3 mps 749 mmHg 65%
    21:00 +16°C° 0 mm 2 mps 749 mmHg 70%
    22:00 +14°C° 0 mm 1 mps 750 mmHg 74%
    23:00 +13°C° 0 mm 1 mps 750 mmHg 75%

    29 June, Saturday

    Time Temperature Precipitation Wind Pressure Humidity
    00:00 +13°C° 0 mm 1 mps 750 mmHg 77%
    01:00 +11°C° 0 mm 0 mps 750 mmHg 78%
    02:00 +11°C° 0 mm 0 mps 750 mmHg 79%
    03:00 +12°C° 0 mm 1 mps 750 mmHg 80%
    04:00 +12°C° 0 mm 1 mps 750 mmHg 81%
    05:00 +14°C° 0 mm 1 mps 750 mmHg 76%
    06:00 +15°C° 0 mm 2 mps 750 mmHg 71%
    07:00 +17°C° 0 mm 2 mps 750 mmHg 66%
    08:00 +19°C° 0 mm 2 mps 750 mmHg 61%
    09:00 +20°C° 0 mm 3 mps 750 mmHg 56%
    10:00 +22°C° 0 mm 3 mps 750 mmHg 50%
    11:00 +22°C° 0 mm 3 mps 750 mmHg 49%
    12:00 +24°C° 0 mm 3 mps 750 mmHg 48%
    13:00 +23°C° 0 mm 4 mps 749 mmHg 46%
    14:00 +24°C° 0 mm 3 mps 749 mmHg 47%
    15:00 +24°C° 0 mm 3 mps 749 mmHg 48%
    16:00 +24°C° 0 mm 3 mps 749 mmHg 48%
    17:00 +24°C° 0 mm 2 mps 749 mmHg 53%
    18:00 +23°C° 0 mm 2 mps 748 mmHg 57%
    19:00 +22°C° 0 mm 1 mps 748 mmHg 61%
    20:00 +21°C° 0 mm 1 mps 748 mmHg 62%
    21:00 +20°C° 0 mm 1 mps 749 mmHg 63%
    22:00 +18°C° 0 mm 2 mps 749 mmHg 64%
    23:00 +17°C° 0 mm 2 mps 749 mmHg 65%

    30 June, Sunday

    Time Temperature Precipitation Wind Pressure Humidity
    00:00 +17°C° 0 mm 2 mps 748 mmHg 66%
    01:00 +16°C° 0 mm 3 mps 748 mmHg 68%
    02:00 +16°C° 0 mm 3 mps 748 mmHg 69%
    03:00 +16°C° 0 mm 3 mps 748 mmHg 70%
    04:00 +14°C° 0 mm 3 mps 748 mmHg 72%
    05:00 +17°C° 0 mm 3 mps 748 mmHg 68%
    06:00 +19°C° 0 mm 4 mps 748 mmHg 64%
    07:00 +21°C° 0 mm 4 mps 748 mmHg 60%
    08:00 +22°C° 0 mm 4 mps 748 mmHg 55%
    09:00 +25°C° 0 mm 4 mps 747 mmHg 50%
    10:00 +27°C° 0 mm 4 mps 747 mmHg 45%
    11:00 +28°C° 0 mm 5 mps 747 mmHg 44%
    12:00 +29°C° 0 mm 5 mps 747 mmHg 42%
    13:00 +29°C° 0 mm 5 mps 746 mmHg 41%
    14:00 +29°C° 0 mm 6 mps 746 mmHg 43%
    15:00 +29°C° 0 mm 6 mps 745 mmHg 45%
    16:00 +29°C° 0 mm 6 mps 745 mmHg 46%
    17:00 +28°C° 0 mm 6 mps 745 mmHg 52%
    18:00 +26°C° 0 mm 6 mps 744 mmHg 58%
    19:00 +24°C° 0 mm 6 mps 744 mmHg 64%
    20:00 +23°C° 0 mm 6 mps 744 mmHg 66%
    21:00 +22°C° 0 mm 6 mps 744 mmHg 69%
    22:00 +21°C° 0 mm 6 mps 744 mmHg 72%
    23:00 +21°C° 0 mm 6 mps 744 mmHg 72%
    Show more